"Pseudo-MPEC" for P21lbpw

Created 2021 Sep 25 18:07:17 UT using Find_Orb

Click here for an explanation of pseudo-MPECs

 
 Astrometry: 
     P21lbpw  C2021 09 15Q(#DJ`W:p+J2=3CRak(Si!I]'h[Gh2OEAstrometryVT,hHVMrCjF52
     P21lbpw  C2021 09 15`fJlN;N[+O].2dvHfZodkIJYK`x#+^j/*r%XS0.krtUnBAgW7QH:F52
     P21lbpw  C2021 09 15U[@5u9V)6`!;.%yQU/EQ*2bu=d6rEVbuN!!**kj_`bG?iGpxVpO`F52
     P21lbpw  C2021 09 15(8\VLL\4Q05,:sx^28FZXi'(A7xqw[c3[?_-uuv+13y_1]q#^Q5'F52
     P21lbpw |C2021 09 162IIt!Q7hfV(N,#J2c5Et0Tlh8w#?dABg8BCS10d9^ppb\Yw\vrFP807
     P21lbpw |C2021 09 164B;l;Yg^GYC#Tredacted;TgrGKB3XQd:'\;W)SpuoO=SPv-Ny;(807
     P21lbpw |C2021 09 16@3*E/H2hSw([Ywl4'F*;3?Hp/lIKNj8X5HZH64ErIXp;lQaP-VdM807
     P21lbpw KC2021 09 16X\wh(FmV6_ia#NQkM$:_tVRKq(XNF_`(6(0]OAM50SPg[(Yb,sHZH21
     P21lbpw KC2021 09 16OT_G\qO]1ieGrP*Gq26[?AH!I'=/!?C*s(+Vy490$XXvbw3Nhnn/H21
     P21lbpw |C2021 09 25qIXR@A-`dlYFwiE2\0j;BfW8=clickkg+95:08L=XmJ1RWnAWZ$A807
     P21lbpw |C2021 09 25JscjP!-ABm51-yI4\[gm]R$QN51RV5Ks%UugQqZf)Ae,U(hkIC^`807
     P21lbpw |C2021 09 25Ol#RWUbmZ\L6W9g(s-1orJT,;WOSr%Jd\VA8hr;b1T):(6%wcC!=807
     P21lbpw |C2021 09 25*qOY$G8(1u^,g#u9W6CD_]vb#_`hereYVj*+I.,7qkO$X,SqdCM-807
     P21lbpw |C2021 09 25g3Dnc,KF^26hr:Q$VBv!qTY$-*BP2)=yMeb3kZOPpH0Ifor'@kWA807
     P21lbpw |C2021 09 251Tt_nKEeJL+f`v*tK4DexplanationC7/FO7uKT,%NJEriD7mqBY807

Station data:
(807) Cerro Tololo Observatory, La Serena  (S30.169136 W70.805900)  Chile.
(F52) Pan-STARRS 2, Haleakala  (N20.707384 W156.255910)  US/Hawaii. 1.8-m
   Ritchey-Chrétien + CCD.
(H21) Astronomical Research Observatory, Westfield  (N39.483057 W87.968270)
   US/Illinois. 0.76-m f/3.0 astrograph + CCD.

Orbital elements:  P21lbpw
   Perihelion 2021 Apr 22.377835 +/- 0.223833 TT =  9:04:05 (JD 2459326.877835)
Epoch 2021 Sep 25.0 TT = JDT 2459482.5   Earth MOID: 0.0982   Ma: 0.0437
M  97.49781762 +/- 0.2216495        (J2000 ecliptic)          AutoNEOCP
n   0.62650341 +/- 0.000930691      Peri.   79.11504 +/- 0.1890382
a   1.35265514 +/- 0.00133948       Node   162.48796 +/- 0.0771113
e   0.3342036 +/- 0.000866288       Incl.   19.04626 +/- 0.0661707
P   1.57/574.61d           H 21.3   G  0.15   U  8.1  
q 0.90059282 +/- 0.000792399    Q 1.80471745 +/- 0.00276291
From 15 observations 2021 Sept. 15-25; mean residual 0".14
Residuals in arcseconds: 
210915 F52  .01+  .03+    210916 807  .12+  .05+    210925 807  .08+  .10-    
210915 F52  .02-  .05+    210916 807  .03+  .09+    210925 807  .22+  .04+    
210915 F52  .00   .05+    210916 H21  .04+  .01+    210925 807  .01-  .11+    
210915 F52  .04-  .11-    210916 H21  .45-  .07+    210925 807  .02+  .04+    
210916 807  .37+  .25-    210925 807  .22-  .06-    210925 807  .09-  .04-    

Ephemerides (geocentric):
Date (UTC) HH   RA              Dec         delta   r     elong  mag " sig PA
---- -- -- --  -------------   -----------  ------ ------ -----  --- ---- ---
2021 09 25 18  02 22 50.485   -12 09 55.72  .61607 1.5457 144.4 22.2 .207 114
2021 09 25 19  02 22 47.176   -12 11 14.46  .61611 1.5459 144.4 22.2 .223 114
2021 09 25 20  02 22 43.862   -12 12 33.16  .61615 1.5460 144.4 22.2 .239 115
2021 09 25 21  02 22 40.543   -12 13 51.82  .61619 1.5462 144.5 22.2 .255 115
2021 09 25 22  02 22 37.220   -12 15 10.45  .61623 1.5464 144.5 22.2 .271 115
2021 09 25 23  02 22 33.892   -12 16 29.04  .61627 1.5465 144.5 22.2 .287 116
2021 09 26 00  02 22 30.559   -12 17 47.59  .61631 1.5467 144.6 22.2 .303 116
2021 09 26 01  02 22 27.221   -12 19 06.10  .61636 1.5468 144.6 22.2 .319 116
2021 09 26 02  02 22 23.879   -12 20 24.58  .61640 1.5470 144.6 22.2 .336 117
2021 09 26 03  02 22 20.532   -12 21 43.01  .61644 1.5472 144.7 22.2 .352 117
2021 09 26 04  02 22 17.180   -12 23 01.41  .61648 1.5473 144.7 22.2 .369 117
2021 09 26 05  02 22 13.824   -12 24 19.78  .61653 1.5475 144.7 22.2 .386 117
2021 09 26 06  02 22 10.463   -12 25 38.10  .61657 1.5477 144.8 22.2 .403 117
2021 09 26 07  02 22 07.097   -12 26 56.38  .61662 1.5478 144.8 22.2 .420 118
2021 09 26 08  02 22 03.726   -12 28 14.63  .61666 1.5480 144.8 22.2 .437 118
2021 09 26 09  02 22 00.351   -12 29 32.84  .61671 1.5481 144.9 22.2 .454 118
2021 09 26 10  02 21 56.971   -12 30 51.01  .61675 1.5483 144.9 22.2 .472 118
2021 09 26 11  02 21 53.586   -12 32 09.14  .61680 1.5485 144.9 22.2 .489 118
2021 09 26 12  02 21 50.197   -12 33 27.23  .61684 1.5486 145.0 22.2 .507 118
2021 09 26 13  02 21 46.803   -12 34 45.28  .61689 1.5488 145.0 22.2 .525 119
2021 09 26 14  02 21 43.405   -12 36 03.29  .61694 1.5490 145.0 22.2 .543 119
2021 09 26 15  02 21 40.001   -12 37 21.26  .61699 1.5491 145.1 22.2 .561 119
2021 09 26 16  02 21 36.594   -12 38 39.19  .61703 1.5493 145.1 22.2 .579 119
2021 09 26 17  02 21 33.181   -12 39 57.08  .61708 1.5494 145.1 22.2 .597 119
2021 09 26 18  02 21 29.764   -12 41 14.93  .61713 1.5496 145.2 22.2 .616 119
2021 09 26 19  02 21 26.343   -12 42 32.74  .61718 1.5498 145.2 22.2 .634 119
2021 09 26 20  02 21 22.916   -12 43 50.50  .61723 1.5499 145.2 22.2 .653 119
2021 09 26 21  02 21 19.486   -12 45 08.23  .61728 1.5501 145.3 22.2 .672 119
2021 09 26 22  02 21 16.050   -12 46 25.92  .61733 1.5503 145.3 22.2 .691 120
2021 09 26 23  02 21 12.610   -12 47 43.56  .61738 1.5504 145.3 22.2 .710 120
2021 09 27 00  02 21 09.166   -12 49 01.17  .61743 1.5506 145.4 22.2 .729 120
2021 09 27 01  02 21 05.717   -12 50 18.73  .61748 1.5507 145.4 22.2 .748 120
2021 09 27 02  02 21 02.263   -12 51 36.25  .61753 1.5509 145.4 22.2 .767 120
2021 09 27 03  02 20 58.805   -12 52 53.72  .61758 1.5511 145.4 22.2 .787 120
2021 09 27 04  02 20 55.343   -12 54 11.16  .61763 1.5512 145.5 22.2 .807 120
2021 09 27 05  02 20 51.875   -12 55 28.55  .61768 1.5514 145.5 22.2 .826 120
2021 09 27 06  02 20 48.404   -12 56 45.90  .61773 1.5515 145.5 22.2 .846 120
2021 09 27 07  02 20 44.928   -12 58 03.21  .61779 1.5517 145.6 22.2 .866 120
2021 09 27 08  02 20 41.447   -12 59 20.47  .61784 1.5519 145.6 22.2 .886 120
2021 09 27 09  02 20 37.962   -13 00 37.69  .61789 1.5520 145.6 22.2 .906 120
2021 09 27 10  02 20 34.472   -13 01 54.87  .61795 1.5522 145.7 22.2 .927 121
2021 09 27 11  02 20 30.978   -13 03 12.01  .61800 1.5524 145.7 22.2 .947 121
2021 09 27 12  02 20 27.480   -13 04 29.10  .61806 1.5525 145.7 22.2 .968 121
2021 09 27 13  02 20 23.977   -13 05 46.14  .61811 1.5527 145.8 22.2 .988 121
2021 09 27 14  02 20 20.470   -13 07 03.15  .61817 1.5528 145.8 22.2 1.01 121
2021 09 27 15  02 20 16.958   -13 08 20.10  .61822 1.5530 145.8 22.2 1.03 121
2021 09 27 16  02 20 13.442   -13 09 37.02  .61828 1.5532 145.9 22.2 1.05 121
2021 09 27 17  02 20 09.921   -13 10 53.89  .61833 1.5533 145.9 22.2 1.07 121